TimeCDT,TemperatureF,Dew PointF,Humidity,Sea Level PressureIn,VisibilityMPH,Wind Direction,Wind SpeedMPH,Gust SpeedMPH,PrecipitationIn,Events,Conditions,WindDirDegrees,DateUTC
12:56 AM,28.9,24.1,82,30.17,10.0,East,10.4,-,0.00,,Overcast,80,2013-03-17 05:56:00
1:04 AM,28.4,24.8,86,30.10,8.0,East,12.7,-,0.00,Snow,Light Snow,80,2013-03-17 06:04:00
1:22 AM,28.4,23.0,80,30.10,9.0,East,11.5,-,0.00,,Overcast,80,2013-03-17 06:22:00
1:42 AM,26.6,24.8,93,30.08,10.0,East,11.5,-,0.00,,Overcast,80,2013-03-17 06:42:00
1:56 AM,27.0,23.0,85,30.14,10.0,ENE,11.5,-,0.00,,Overcast,70,2013-03-17 06:56:00
2:56 AM,27.0,21.9,81,30.13,9.0,East,6.9,-,N/A,,Overcast,80,2013-03-17 07:56:00
3:56 AM,26.1,21.0,81,30.12,10.0,ESE,8.1,-,N/A,,Overcast,120,2013-03-17 08:56:00
4:56 AM,25.0,19.9,81,30.09,10.0,East,12.7,-,N/A,,Overcast,100,2013-03-17 09:56:00
5:56 AM,24.1,19.0,81,30.08,10.0,East,10.4,-,N/A,,Overcast,90,2013-03-17 10:56:00
6:09 AM,24.8,19.4,80,30.03,10.0,East,9.2,-,N/A,,Overcast,90,2013-03-17 11:09:00
6:34 AM,24.8,19.4,80,30.02,10.0,East,10.4,-,N/A,,Overcast,90,2013-03-17 11:34:00
6:41 AM,24.8,19.4,80,30.01,10.0,East,13.8,-,N/A,,Overcast,90,2013-03-17 11:41:00
6:56 AM,23.0,19.0,85,30.09,10.0,East,9.2,-,N/A,,Overcast,100,2013-03-17 11:56:00
7:11 AM,23.0,19.4,86,30.02,10.0,East,12.7,-,N/A,,Overcast,100,2013-03-17 12:11:00
7:56 AM,23.0,19.0,85,30.09,10.0,ESE,9.2,-,N/A,,Overcast,120,2013-03-17 12:56:00
8:56 AM,24.1,19.9,84,30.09,10.0,ESE,10.4,-,N/A,,Overcast,110,2013-03-17 13:56:00
9:46 AM,26.6,19.4,74,30.03,10.0,SE,12.7,-,N/A,,Overcast,130,2013-03-17 14:46:00
9:56 AM,26.1,19.0,75,30.07,10.0,SE,12.7,-,N/A,,Mostly Cloudy,130,2013-03-17 14:56:00
10:56 AM,30.0,17.1,59,30.03,10.0,SE,18.4,21.9,N/A,,Clear,130,2013-03-17 15:56:00
11:56 AM,32.0,19.0,59,29.98,10.0,ESE,18.4,24.2,N/A,,Clear,120,2013-03-17 16:56:00
12:56 PM,36.0,21.0,55,29.95,10.0,SE,16.1,21.9,N/A,,Clear,140,2013-03-17 17:56:00
1:56 PM,36.0,21.9,57,29.90,10.0,SE,17.3,-,N/A,,Mostly Cloudy,140,2013-03-17 18:56:00
2:56 PM,39.0,23.0,53,29.85,10.0,SSE,19.6,25.3,N/A,,Overcast,150,2013-03-17 19:56:00
3:56 PM,42.1,25.0,51,29.79,10.0,SSE,20.7,28.8,N/A,,Mostly Cloudy,160,2013-03-17 20:56:00
4:56 PM,41.0,27.0,57,29.77,10.0,SSE,16.1,25.3,N/A,,Mostly Cloudy,160,2013-03-17 21:56:00
5:56 PM,42.1,28.0,58,29.76,10.0,South,13.8,-,N/A,,Mostly Cloudy,170,2013-03-17 22:56:00
6:56 PM,42.1,28.9,60,29.76,10.0,SSE,9.2,-,N/A,,Overcast,150,2013-03-17 23:56:00
7:56 PM,41.0,30.0,65,29.76,10.0,SE,8.1,-,N/A,,Overcast,140,2013-03-18 00:56:00
8:56 PM,39.9,30.9,70,29.77,10.0,SE,8.1,-,N/A,,Overcast,130,2013-03-18 01:56:00
9:24 PM,39.2,32.0,75,29.71,8.0,SE,16.1,-,0.00,Rain,Light Rain,130,2013-03-18 02:24:00
9:56 PM,37.9,33.1,83,29.73,8.0,SE,16.1,23.0,0.03,Rain,Light Rain,140,2013-03-18 02:56:00
10:14 PM,37.4,33.8,87,29.67,10.0,SSE,20.7,31.1,0.00,Rain,Light Rain,150,2013-03-18 03:14:00
10:56 PM,37.0,33.1,86,29.72,10.0,SSE,18.4,27.6,0.00,,Scattered Clouds,160,2013-03-18 03:56:00
11:07 PM,37.4,33.8,87,29.67,10.0,SSE,17.3,-,N/A,,Mostly Cloudy,160,2013-03-18 04:07:00
11:32 PM,37.4,33.8,87,29.65,10.0,SE,15.0,-,0.01,,Overcast,140,2013-03-18 04:32:00
11:56 PM,36.0,34.0,93,29.69,9.0,SSE,15.0,24.2,0.01,,Overcast,150,2013-03-18 04:56:00